BAW704 EGLL-LCLK

Flight info

Callsign BAW704
Flight time N/A
Altitude 35000
Route DET1J DET L6 DVR UL9 KONAN DCT KOK DCT REMBA DCT SPI DCT ULNOK DCT VIBOM DCT NOMBO DCT RIDAR DCT GOMIG DCT GOTAR/N0449F370 DCT BABIT DCT KOTUS DCT NISVA N131 USALI DCT RODIP DCT BELGI UN131 KULAR UT39 TOMBI M855 DASNI M601 BONEK BONEK1R
Aircraft A320/M-SDE3FGHIJ1KRWXY/SB1

Departure

Time 2026-05-07 16:47
Airport London Heathrow Airport (EGLL)

Arrival

Time N/A
Airport Larnaca International Airport (LCLK)
Time Latitude Longitude Altitude Speed Heading
2026-05-07 16:45 51.46503 -0.48774 90 ft 1 kts 147°
2026-05-07 16:45 51.46481 -0.48723 87 ft 8 kts 107°
2026-05-07 16:46 51.46478 -0.48618 86 ft 11 kts 89°
2026-05-07 16:46 51.46478 -0.48600 86 ft 1 kts 89°
2026-05-07 16:46 51.46478 -0.48590 86 ft 0 kts 89°
2026-05-07 16:46 51.46479 -0.48512 86 ft 29 kts 89°
2026-05-07 16:47 51.46481 -0.47842 87 ft 90 kts 89°
2026-05-07 16:47 51.46485 -0.46566 90 ft 137 kts 90°
2026-05-07 16:47 51.46499 -0.44850 242 ft 160 kts 91°
2026-05-07 16:47 51.46519 -0.43069 828 ft 161 kts 90°
2026-05-07 16:48 51.46324 -0.41312 1302 ft 165 kts 126°
2026-05-07 16:48 51.45552 -0.39829 1560 ft 184 kts 129°
2026-05-07 16:48 51.44792 -0.38024 1800 ft 207 kts 123°
2026-05-07 16:48 51.44034 -0.35935 2077 ft 228 kts 121°
2026-05-07 16:49 51.43455 -0.33442 2395 ft 252 kts 102°
2026-05-07 16:49 51.43099 -0.30640 3091 ft 260 kts 103°
2026-05-07 16:49 51.42710 -0.27833 3910 ft 263 kts 103°
2026-05-07 16:49 51.42308 -0.24952 4731 ft 267 kts 103°
2026-05-07 16:50 51.41907 -0.22038 5543 ft 269 kts 103°
2026-05-07 16:50 51.41505 -0.19100 6387 ft 271 kts 103°
2026-05-07 16:50 51.41102 -0.16140 7148 ft 274 kts 103°
2026-05-07 16:50 51.40693 -0.13137 7883 ft 278 kts 103°
2026-05-07 16:51 51.40273 -0.10088 8624 ft 282 kts 103°
2026-05-07 16:51 51.39847 -0.07011 9347 ft 285 kts 104°
2026-05-07 16:51 51.39413 -0.03889 10063 ft 289 kts 104°
2026-05-07 16:51 51.38960 -0.00660 10353 ft 309 kts 104°
2026-05-07 16:52 51.38472 0.02819 10520 ft 331 kts 104°
2026-05-07 16:52 51.37964 0.06461 10820 ft 346 kts 104°
2026-05-07 16:52 51.37435 0.10255 11394 ft 351 kts 104°
2026-05-07 16:52 51.36902 0.14077 12006 ft 354 kts 104°
2026-05-07 16:53 51.36363 0.17930 12635 ft 356 kts 104°
2026-05-07 16:53 51.35816 0.21815 13276 ft 359 kts 104°
2026-05-07 16:53 51.35263 0.25721 13898 ft 362 kts 104°
2026-05-07 16:53 51.34704 0.29665 14439 ft 365 kts 104°
2026-05-07 16:54 51.34141 0.33643 14943 ft 369 kts 104°
2026-05-07 16:54 51.33568 0.37671 15439 ft 373 kts 104°
2026-05-07 16:54 51.32996 0.41676 15902 ft 377 kts 104°
2026-05-07 16:54 51.32412 0.45742 16209 ft 381 kts 104°
2026-05-07 16:55 51.31814 0.49891 16715 ft 384 kts 104°
2026-05-07 16:55 51.31212 0.54069 17243 ft 388 kts 104°
2026-05-07 16:55 51.30604 0.58295 17774 ft 392 kts 104°
2026-05-07 16:55 51.29957 0.62550 18292 ft 396 kts 106°
2026-05-07 16:56 51.29223 0.66805 18786 ft 399 kts 107°
2026-05-07 16:56 51.28432 0.71063 19271 ft 402 kts 108°
2026-05-07 16:56 51.26780 0.79667 20316 ft 408 kts 108°
2026-05-07 16:57 51.25964 0.83960 20804 ft 411 kts 108°
2026-05-07 16:57 51.25141 0.88359 21288 ft 414 kts 108°
2026-05-07 16:57 51.24324 0.92780 21753 ft 417 kts 108°
2026-05-07 16:57 51.23503 0.97238 22209 ft 420 kts 107°
2026-05-07 16:58 51.22680 1.01726 22650 ft 423 kts 107°
2026-05-07 16:58 51.21848 1.06242 23061 ft 425 kts 108°
2026-05-07 16:58 51.21005 1.10778 23477 ft 428 kts 108°
2026-05-07 16:58 51.20148 1.15346 23839 ft 431 kts 108°
2026-05-07 16:59 51.19284 1.19933 24174 ft 433 kts 108°
2026-05-07 16:59 51.18413 1.24546 24507 ft 436 kts 108°
2026-05-07 16:59 51.17548 1.29114 24832 ft 438 kts 108°
2026-05-07 16:59 51.16682 1.33770 25138 ft 440 kts 105°
2026-05-07 17:00 51.16137 1.38588 25455 ft 444 kts 96°
2026-05-07 17:00 51.15907 1.43503 25762 ft 446 kts 95°
2026-05-07 17:00 51.15684 1.48331 26079 ft 448 kts 95°
2026-05-07 17:00 51.15457 1.53116 26383 ft 450 kts 95°
2026-05-07 17:01 51.15214 1.58095 26691 ft 452 kts 95°
2026-05-07 17:01 51.14965 1.63084 26997 ft 454 kts 95°
2026-05-07 17:01 51.14722 1.67908 27285 ft 456 kts 95°
2026-05-07 17:01 51.14467 1.72945 27590 ft 458 kts 95°
2026-05-07 17:02 51.14212 1.78000 27990 ft 457 kts 95°
2026-05-07 17:02 51.13957 1.83037 28417 ft 456 kts 95°
2026-05-07 17:02 51.13699 1.88074 28851 ft 456 kts 96°
2026-05-07 17:02 51.13438 1.93094 29275 ft 455 kts 96°
2026-05-07 17:03 51.13175 1.98111 29716 ft 454 kts 96°
2026-05-07 17:03 51.12914 2.03055 30134 ft 453 kts 96°
2026-05-07 17:03 51.12651 2.08049 30497 ft 453 kts 96°
2026-05-07 17:03 51.12385 2.13036 30865 ft 452 kts 96°
2026-05-07 17:04 51.12118 2.18019 31231 ft 451 kts 96°
2026-05-07 17:04 51.11850 2.22990 31598 ft 451 kts 96°
2026-05-07 17:04 51.11577 2.27960 31962 ft 450 kts 96°
2026-05-07 17:04 51.11302 2.32923 32337 ft 449 kts 96°
2026-05-07 17:05 51.11027 2.37870 32705 ft 449 kts 96°
2026-05-07 17:05 51.10753 2.42803 33111 ft 448 kts 96°
2026-05-07 17:05 51.10480 2.47669 33470 ft 447 kts 96°
2026-05-07 17:05 51.10199 2.52582 33829 ft 446 kts 96°
2026-05-07 17:06 51.09914 2.57500 34154 ft 445 kts 96°
2026-05-07 17:06 51.09629 2.62404 34419 ft 445 kts 97°
2026-05-07 17:06 51.09099 2.67241 34673 ft 443 kts 107°
2026-05-07 17:06 51.08251 2.71946 34921 ft 443 kts 108°
2026-05-07 17:07 51.07392 2.76654 35037 ft 444 kts 108°
2026-05-07 17:07 51.06529 2.81391 35087 ft 449 kts 108°
2026-05-07 17:07 51.05074 2.89408 35083 ft 458 kts 107°
2026-05-07 17:08 51.03013 3.00751 35080 ft 461 kts 108°
2026-05-07 17:08 51.01220 3.10524 35080 ft 461 kts 108°
2026-05-07 17:09 50.99722 3.18642 35081 ft 461 kts 108°
2026-05-07 17:09 50.97906 3.28409 35078 ft 461 kts 108°
2026-05-07 17:10 50.95786 3.39742 35074 ft 462 kts 108°
2026-05-07 17:10 50.94248 3.47912 35077 ft 462 kts 108°
2026-05-07 17:11 50.92424 3.57606 35076 ft 462 kts 108°
2026-05-07 17:11 50.90581 3.67360 35080 ft 462 kts 108°
2026-05-07 17:12 50.88727 3.77086 35082 ft 462 kts 108°
2026-05-07 17:12 50.86862 3.86812 35084 ft 461 kts 108°
2026-05-07 17:13 50.85006 3.96446 35089 ft 461 kts 108°
2026-05-07 17:13 50.83130 4.06129 35089 ft 460 kts 108°
2026-05-07 17:14 50.81248 4.15815 35085 ft 460 kts 108°
2026-05-07 17:14 50.79364 4.25489 35073 ft 461 kts 108°
2026-05-07 17:15 50.77475 4.35112 35074 ft 462 kts 109°
2026-05-07 17:15 50.75560 4.44795 35076 ft 462 kts 109°
2026-05-07 17:16 50.73633 4.54483 35074 ft 463 kts 109°
2026-05-07 17:16 50.71702 4.64174 35078 ft 463 kts 109°
2026-05-07 17:17 50.69764 4.73865 35077 ft 463 kts 109°
2026-05-07 17:17 50.67824 4.83475 35088 ft 463 kts 109°
2026-05-07 17:18 50.65867 4.93138 35093 ft 463 kts 109°
2026-05-07 17:18 50.63899 5.02809 35095 ft 463 kts 109°
2026-05-07 17:19 50.61915 5.12445 35092 ft 463 kts 109°
2026-05-07 17:19 50.59915 5.22073 35088 ft 463 kts 109°
2026-05-07 17:20 50.57927 5.31624 35093 ft 462 kts 109°
2026-05-07 17:20 50.55916 5.41239 35089 ft 462 kts 109°
2026-05-07 17:21 50.53907 5.50837 35088 ft 462 kts 110°
2026-05-07 17:21 50.51878 5.60424 35080 ft 462 kts 110°
2026-05-07 17:22 50.49825 5.69916 35076 ft 462 kts 110°
2026-05-07 17:22 50.47674 5.79419 35067 ft 462 kts 111°
2026-05-07 17:23 50.45505 5.88922 35068 ft 462 kts 111°
2026-05-07 17:23 50.43352 5.98434 35066 ft 463 kts 111°
2026-05-07 17:24 50.41214 6.07883 35068 ft 463 kts 111°
2026-05-07 17:24 50.39052 6.17368 35068 ft 462 kts 111°
2026-05-07 17:25 50.36874 6.26848 35072 ft 462 kts 111°
2026-05-07 17:25 50.34686 6.36322 35068 ft 462 kts 111°
2026-05-07 17:26 50.32498 6.45778 35070 ft 462 kts 111°
2026-05-07 17:26 50.30321 6.55169 35061 ft 462 kts 111°
2026-05-07 17:27 50.28121 6.64608 35064 ft 462 kts 111°
2026-05-07 17:27 50.25907 6.74025 35067 ft 462 kts 111°
2026-05-07 17:28 50.23688 6.83439 35071 ft 462 kts 111°
2026-05-07 17:28 50.21476 6.92789 35072 ft 462 kts 111°
2026-05-07 17:29 50.19245 7.02183 35063 ft 462 kts 111°
2026-05-07 17:29 50.17003 7.11570 35063 ft 462 kts 111°
2026-05-07 17:30 50.14750 7.20962 35063 ft 462 kts 111°